Weather in Petrivka-Romenska

Ukraine / Poltava Region     50°22′13″N   33°44′35″E
В апреле 2022 года жителям России запретили посещать сайт meteo.paraplan.net по решению Генеральной прокуратуры. Аудитория сайта уменьшилась в 10 раз. Владельцы сайта не видят смысла в поддержке погодного сервера в таких условиях. Сайт будет закрыт в октябре.
temp.,
°C
wind,
m/s
gust,
m/s
humid.,
%
clouds,
%
prec.,
mm/h
press.,
hPa
HPBL,
m
5 october, wed
wed500:00+9wsw61188100 0.3 1015574
03:00+9w61188100 0.6 1017633
06:00+8wsw4109461 0.1 1018406
09:00+9w7108799 0.2 1020728
12:00+9wnw698399 0.1 1022806
15:00+11wnw697089 0.3 10231218
18:00+10wnw5976100 0.0 1024661
21:00+8w369191 0.0 1025132
6 october, thu
thu600:00+9wsw3686100 0.0 1025201
03:00+8sw3594100 0.0 102696
06:00+8sw3789100 0.0 1025176
09:00+9sw4983100 0.0 1025263
12:00+15wsw686293 0.0 1024662
15:00+17w685321 0.0 10231005
18:00+14wsw346969 0.0 102355
21:00+11wsw367544 0.0 102479
7 october, fri
fri700:00+10wnw378476 0.0 1025106
03:00+10wnw36925 0.0 1025103
06:00+9nw37945 0.0 1025141
09:00+12nnw598522 0.0 1027347
12:00+16n56585 0.0 1027762
15:00+17n45474 0.0 1027946
18:00+13nnw34660 0.0 102740
21:00+10nne33790 0.0 102835
8 october, sat
sat800:00+9ne22840 0.0 102820
03:00+8ene22880 0.0 102715
06:00+7ene22893 0.0 102721
09:00+10ese24775 0.0 1027168
12:00+15se34545 0.0 1025647
15:00+17se23445 0.0 1023878
18:00+13ese225812 0.0 102213
21:00+11ese336598 0.0 102241
9 october, sun
sun900:00+10se2273100 0.0 102120
03:00+10sse2279100 0.0 102013
06:00+9sse2281100 0.0 102010
09:00+12ssw2274100 0.0 1019111
12:00+16w3460100 0.0 1019572
15:00+15nw6757100 0.0 1019989
18:00+11nnw61085100 0.0 1021627
21:00+9nnw411931 0.0 1023321